Temp
-10 -10 -10 -10 -10 -11 -11 -11 -11 -10 -10 -10 -10 -10 -10 -10 -9 -9 -9 -8 -9 -9 -9 -9 -9 -9 -9 -9 -9 -9 -8 -8 -8 -8 -8 -8 -7 -7 -7 -8 -8 -8 -9
-10 -10 -10 -10 -11 -11 -11 -11 -11 -10 -11 -10 -10 -11 -10 -10 -10 -9 -9 -9 -9 -9 -9 -9 -9 -9 -9 -9 -9 -9 -8 -8 -8 -8 -8 -8 -7 -8 -8 -8 -8 -8 -9
-10 -10 -10 -11 -11 -11 -11 -11 -11 -11 -11 -11 -11 -11 -11 -10 -10 -10 -10 -9 -9 -9 -9 -9 -9 -9 -9 -9 -9 -9 -9 -8 -8 -8 -8 -8 -8 -8 -8 -8 -8 -8 -9
-10 -10 -10 -10 -11 -11 -11 -11 -11 -11 -11 -11 -11 -11 -11 -11 -11 -10 -10 -10 -9 -9 -9 -9 -9 -9 -9 -9 -9 -9 -9 -9 -8 -8 -8 -8 -8 -8 -8 -8 -8 -9 -9
-10 -10 -10 -10 -10 -11 -11 -11 -11 -11 -11 -11 -11 -11 -11 -11 -11 -11 -11 -10 -10 -10 -9 -9 -9 -9 -9 -9 -9 -9 -9 -9 -9 -9 -9 -9 -8 -8 -8 -8 -9 -9 -9
-11 -11 -11 -11 -11 -10 -10 -11 -11 -11 -11 -11 -11 -12 -11 -11 -11 -11 -11 -11 -10 -10 -10 -9 -9 -10 -9 -9 -9 -9 -9 -9 -9 -9 -9 -9 -9 -9 -9 -9 -9 -9 -9
-11 -11 -11 -11 -11 -11 -11 -11 -11 -11 -11 -11 -11 -11 -11 -11 -11 -11 -11 -11 -11 -11 -10 -10 -10 -10 -10 -10 -9 -10 -10 -9 -10 -10 -9 -9 -9 -9 -9 -9 -9 -9 -9
-11 -11 -11 -11 -11 -11 -11 -11 -11 -11 -11 -12 -11 -11 -11 -11 -11 -11 -12 -11 -11 -11 -11 -11 -10 -10 -10 -10 -10 -10 -10 -10 -10 -10 -9 -9 -9 -9 -9 -9 -9 -9 -9
-10 -11 -11 -11 -11 -11 -11 -11 -11 -11 -11 -11 -11 -12 -11 -11 -11 -11 -11 -12 -12 -11 -11 -11 -11 -10 -10 -10 -10 -10 -10 -10 -10 -10 -10 -9 -9 -9 -9 -9 -9 -9 -9
-11 -10 -11 -11 -11 -11 -11 -11 -11 -11 -11 -11 -11 -11 -12 -12 -12 -12 -11 -11 -11 -11 -11 -11 -11 -10 -10 -10 -10 -10 -10 -10 -10 -10 -10 -10 -9 -9 -9 -9 -9 -9 -9
-11 -11 -11 -11 -11 -12 -11 -11 -11 -11 -11 -11 -11 -11 -11 -11 -12 -12 -12 -11 -11 -11 -11 -11 -11 -10 -10 -10 -10 -10 -10 -10 -10 -10 -10 -10 -9 -9 -9 -9 -9 -9 -9
-11 -11 -11 -11 -11 -11 -11 -11 -12 -12 -12 -11 -11 -12 -11 -11 -11 -12 -12 -12 -11 -11 -11 -11 -10 -10 -10 -10 -10 -10 -10 -9 -10 -10 -10 -10 -10 -10 -9 -9 -9 -9 -9
-11 -11 -11 -11 -11 -11 -11 -11 -12 -12 -12 -12 -12 -12 -12 -12 -11 -12 -12 -12 -12 -11 -11 -11 -11 -11 -11 -11 -10 -10 -10 -10 -10 -10 -10 -10 -10 -10 -9 -9 -9 -9 -9
-11 -11 -11 -11 -11 -11 -12 -12 -12 -12 -13 -13 -13 -12 -12 -12 -12 -12 -12 -12 -12 -11 -11 -12 -11 -11 -11 -11 -11 -10 -10 -10 -10 -10 -10 -10 -10 -10 -10 -9 -9 -9 -9
-12 -12 -12 -12 -12 -11 -11 -12 -12 -13 -12 -13 -13 -13 -13 -13 -12 -12 -12 -12 -12 -11 -11 -11 -12 -11 -12 -11 -11 -11 -10 -10 -11 -11 -10 -10 -10 -10 -10 -10 -9 -9 -9
-13 -13 -14 -14 -14 -14 -13 -12 -12 -12 -13 -13 -13 -13 -13 -13 -13 -13 -12 -12 -12 -12 -12 -11 -12 -12 -12 -12 -11 -11 -11 -10 -10 -11 -11 -11 -10 -10 -10 -10 -10 -9 -9
-15 -15 -15 -15 -15 -15 -15 -14 -14 -13 -13 -13 -13 -13 -13 -13 -13 -13 -13 -13 -12 -12 -12 -12 -12 -11 -11 -11 -11 -11 -12 -11 -11 -11 -11 -11 -11 -11 -10 -10 -11 -10 -10
-14 -15 -15 -15 -15 -15 -15 -16 -15 -14 -14 -13 -13 -14 -14 -14 -13 -13 -14 -13 -13 -13 -12 -12 -12 -11 -11 -12 -11 -11 -11 -12 -12 -11 -11 -11 -11 -11 -11 -10 -11 -11 -10
-15 -15 -15 -15 -15 -15 -15 -16 -16 -16 -15 -15 -14 -14 -14 -14 -14 -14 -14 -14 -14 -13 -13 -12 -12 -12 -12 -12 -12 -12 -12 -11 -12 -12 -11 -11 -12 -11 -11 -11 -11 -11 -10
-15 -16 -16 -16 -16 -16 -16 -16 -16 -16 -16 -16 -15 -15 -15 -15 -15 -15 -14 -14 -14 -14 -13 -13 -12 -12 -12 -12 -12 -13 -13 -12 -12 -12 -12 -12 -12 -12 -11 -11 -11 -11 -11
-16 -16 -16 -17 -17 -17 -18 -18 -18 -17 -17 -17 -16 -16 -16 -15 -15 -15 -15 -15 -15 -14 -14 -13 -13 -13 -13 -13 -12 -13 -13 -12 -12 -12 -12 -13 -12 -12 -12 -12 -11 -11 -11
-17 -17 -18 -19 -20 -20 -20 -20 -20 -20 -19 -19 -18 -17 -16 -16 -16 -16 -16 -15 -15 -15 -14 -14 -13 -13 -14 -14 -13 -13 -12 -13 -12 -12 -12 -12 -12 -13 -12 -12 -12 -12 -11
-19 -21 -22 -24 -25 -26 -26 -26 -25 -24 -23 -21 -20 -19 -18 -17 -17 -16 -16 -16 -15 -15 -15 -14 -14 -14 -14 -15 -14 -13 -13 -12 -14 -13 -13 -12 -12 -12 -14 -13 -12 -12 -12
-24 -26 -28 -28 -28 -28 -29 -29 -29 -28 -27 -26 -23 -22 -20 -18 -17 -17 -17 -17 -16 -15 -15 -15 -14 -14 -14 -15 -15 -14 -13 -13 -12 -13 -13 -13 -13 -13 -13 -14 -13 -12 -12
-28 -29 -29 -29 -29 -29 -29 -29 -29 -29 -29 -29 -28 -26 -24 -21 -19 -18 -17 -17 -17 -16 -15 -15 -15 -15 -14 -15 -15 -15 -14 -14 -13 -14 -12 -13 -13 -13 -13 -14 -14 -13 -13
-29 -29 -29 -29 -29 -29 -29 -29 -29 -29 -29 -29 -29 -29 -28 -25 -22 -20 -19 -18 -18 -17 -16 -16 -15 -15 -15 -15 -16 -15 -15 -14 -14 -13 -13 -13 -14 -13 -13 -14 -14 -13 -13
Height
5838 5837 5837 5837 5834 5832 5832 5835 5836 5837 5837 5837 5838 5840 5842 5844 5845 5846 5847 5848 5849 5848 5850 5850 5850 5851 5851 5853 5854 5854 5855 5856 5856 5855 5857 5858 5858 5859 5859 5860 5861 5862 5863
5834 5833 5832 5832 5831 5831 5830 5832 5833 5834 5834 5835 5835 5836 5838 5840 5841 5843 5843 5845 5845 5846 5847 5847 5849 5849 5849 5851 5852 5853 5854 5854 5855 5855 5855 5857 5857 5858 5859 5860 5861 5863 5865
5832 5832 5831 5831 5830 5829 5830 5828 5829 5831 5831 5831 5832 5833 5835 5837 5838 5839 5840 5841 5842 5843 5844 5844 5846 5847 5846 5848 5849 5850 5851 5852 5853 5853 5854 5855 5856 5857 5858 5859 5860 5862 5864
5829 5828 5827 5827 5827 5827 5827 5827 5827 5826 5827 5828 5828 5829 5831 5833 5834 5835 5836 5837 5837 5839 5840 5840 5842 5844 5844 5845 5846 5847 5849 5850 5850 5851 5852 5852 5854 5855 5857 5859 5860 5862 5863
5826 5825 5824 5823 5822 5823 5824 5824 5823 5823 5822 5822 5823 5824 5825 5827 5829 5831 5832 5832 5833 5833 5834 5836 5836 5839 5840 5842 5843 5844 5845 5847 5847 5849 5850 5851 5852 5854 5855 5858 5859 5861 5863
5821 5821 5820 5819 5817 5818 5818 5819 5818 5819 5819 5819 5819 5820 5820 5822 5823 5825 5827 5827 5828 5829 5829 5831 5832 5833 5835 5837 5839 5840 5842 5844 5845 5846 5849 5849 5850 5851 5854 5856 5858 5861 5862
5816 5816 5814 5814 5813 5813 5813 5813 5813 5812 5813 5814 5814 5815 5817 5816 5817 5819 5821 5823 5822 5824 5825 5827 5828 5829 5831 5832 5833 5836 5839 5841 5842 5844 5846 5848 5849 5849 5852 5854 5856 5858 5861
5810 5810 5809 5809 5808 5807 5807 5807 5808 5807 5807 5808 5808 5808 5809 5810 5812 5812 5814 5816 5817 5817 5819 5821 5824 5825 5826 5827 5828 5831 5835 5838 5839 5841 5843 5845 5846 5847 5850 5851 5853 5856 5858
5804 5802 5802 5801 5801 5801 5800 5800 5800 5800 5799 5800 5801 5802 5802 5803 5804 5806 5808 5809 5810 5812 5813 5815 5818 5820 5821 5823 5824 5825 5829 5832 5835 5837 5839 5841 5843 5844 5846 5849 5850 5853 5855
5795 5794 5793 5793 5792 5792 5792 5791 5791 5791 5792 5793 5793 5794 5795 5795 5796 5797 5799 5802 5804 5806 5806 5809 5811 5813 5814 5817 5819 5820 5823 5826 5830 5833 5834 5837 5839 5841 5843 5845 5848 5850 5853
5786 5785 5784 5783 5782 5781 5781 5782 5781 5782 5782 5783 5785 5786 5786 5787 5788 5789 5790 5793 5795 5797 5799 5802 5804 5805 5807 5811 5813 5815 5817 5820 5823 5827 5829 5832 5835 5837 5839 5842 5845 5847 5849
5776 5775 5774 5773 5772 5771 5770 5771 5770 5771 5771 5772 5773 5775 5776 5777 5778 5779 5781 5784 5785 5787 5790 5793 5794 5796 5799 5804 5807 5808 5811 5814 5816 5820 5823 5826 5829 5832 5834 5837 5840 5843 5845
5764 5762 5761 5760 5760 5760 5758 5756 5756 5756 5757 5760 5761 5762 5763 5765 5767 5768 5771 5773 5776 5778 5780 5782 5785 5787 5790 5794 5797 5800 5802 5806 5809 5813 5816 5819 5823 5826 5829 5832 5835 5838 5841
5754 5752 5748 5745 5743 5742 5743 5743 5741 5741 5741 5742 5745 5748 5750 5751 5754 5756 5758 5760 5763 5767 5769 5771 5774 5777 5781 5783 5786 5789 5792 5797 5800 5804 5807 5811 5815 5819 5822 5826 5829 5832 5835
5738 5736 5734 5732 5730 5728 5726 5725 5724 5725 5726 5726 5727 5731 5735 5736 5739 5742 5744 5747 5751 5755 5758 5761 5763 5766 5770 5774 5775 5778 5783 5788 5791 5794 5799 5802 5806 5811 5814 5817 5822 5826 5828
5721 5718 5716 5714 5710 5709 5708 5708 5707 5705 5705 5708 5710 5712 5715 5721 5723 5726 5729 5733 5737 5741 5745 5749 5753 5756 5758 5762 5765 5767 5772 5777 5781 5788 5790 5793 5797 5802 5806 5809 5813 5819 5821
5700 5695 5692 5691 5690 5688 5687 5686 5686 5686 5686 5685 5688 5692 5695 5699 5706 5709 5712 5717 5722 5726 5730 5735 5739 5744 5747 5747 5752 5755 5757 5763 5768 5776 5781 5784 5789 5793 5797 5801 5804 5810 5814
5679 5676 5672 5670 5668 5666 5665 5664 5662 5662 5663 5664 5665 5668 5674 5678 5683 5689 5694 5699 5704 5709 5714 5720 5724 5729 5727 5732 5734 5740 5744 5749 5756 5763 5770 5773 5779 5784 5789 5792 5795 5802 5806
5660 5653 5650 5645 5642 5639 5637 5635 5634 5636 5637 5639 5641 5644 5648 5655 5661 5667 5673 5679 5686 5691 5698 5702 5708 5715 5718 5722 5723 5728 5732 5736 5742 5750 5758 5763 5768 5773 5779 5782 5787 5791 5798
5636 5630 5621 5614 5610 5608 5606 5604 5603 5604 5607 5610 5614 5617 5622 5628 5636 5644 5651 5657 5665 5672 5679 5685 5689 5697 5707 5715 5716 5718 5722 5728 5732 5738 5744 5750 5756 5763 5768 5772 5778 5782 5788
5608 5599 5591 5584 5575 5569 5567 5566 5567 5569 5571 5576 5583 5588 5594 5601 5609 5618 5627 5635 5643 5652 5659 5666 5673 5679 5691 5699 5700 5708 5711 5713 5718 5725 5731 5737 5744 5750 5756 5762 5767 5772 5778
5577 5567 5558 5548 5540 5533 5528 5527 5529 5531 5535 5540 5547 5555 5564 5572 5580 5590 5601 5611 5620 5629 5638 5647 5654 5661 5671 5678 5690 5693 5698 5702 5704 5710 5717 5722 5730 5736 5744 5751 5756 5762 5768
5546 5536 5525 5515 5508 5503 5498 5495 5493 5495 5499 5504 5511 5520 5530 5541 5551 5561 5573 5585 5595 5606 5615 5625 5634 5641 5650 5661 5673 5679 5686 5689 5695 5699 5706 5711 5717 5723 5731 5740 5745 5752 5757
5521 5509 5501 5495 5489 5485 5481 5477 5474 5472 5473 5473 5479 5487 5496 5507 5520 5531 5543 5557 5569 5582 5593 5602 5612 5622 5630 5642 5653 5662 5672 5675 5680 5687 5693 5699 5703 5709 5716 5726 5734 5740 5746
5499 5493 5488 5481 5476 5470 5466 5463 5460 5458 5456 5456 5456 5460 5466 5476 5487 5500 5514 5528 5542 5555 5568 5578 5588 5599 5609 5622 5635 5645 5655 5665 5669 5673 5683 5688 5689 5696 5702 5711 5721 5729 5735
5486 5480 5474 5469 5464 5458 5454 5449 5446 5445 5443 5442 5441 5442 5445 5449 5458 5469 5484 5498 5513 5528 5541 5555 5565 5576 5587 5599 5613 5629 5639 5647 5658 5662 5669 5676 5680 5684 5689 5698 5709 5718 5724
Wind_Speed
24 24 25 25 27 22 26 23 21 21 20 19 19 19 18 20 20 19 19 18 18 16 17 17 18 16 15 15 14 13 12 10 9 9 7 6 8 8 9 11 14 20 23
22 23 23 27 27 24 28 27 27 24 22 22 22 22 20 21 21 21 20 20 20 18 19 17 19 18 17 16 16 15 14 12 12 11 10 9 9 10 11 14 17 20 21
19 21 22 23 24 25 26 27 26 25 25 25 24 24 23 22 22 23 23 22 22 20 20 18 19 20 19 18 17 18 16 15 16 15 13 10 11 11 13 16 19 21 20
19 19 21 22 22 25 26 26 25 25 24 24 25 25 25 26 26 25 26 25 24 23 22 21 21 21 20 20 20 20 18 17 18 19 17 13 13 13 14 18 21 22 22
18 21 23 24 23 24 25 25 25 24 25 27 28 25 25 26 30 29 27 27 27 26 25 24 23 23 23 23 22 21 20 19 20 21 18 15 14 14 16 18 23 23 22
18 21 22 25 27 28 28 26 28 25 27 30 28 27 29 26 27 30 31 30 31 29 28 27 26 25 25 24 23 22 22 21 22 22 20 17 14 16 17 22 24 25 24
24 24 26 26 27 27 29 31 30 30 30 30 32 32 31 32 28 27 30 32 32 31 29 29 29 27 27 28 25 23 23 23 24 24 22 18 16 16 17 21 24 26 26
31 31 31 32 32 32 32 31 31 33 32 33 33 35 36 36 35 30 28 30 31 33 30 31 31 31 29 29 28 25 24 25 26 26 24 21 20 17 18 20 25 28 29
35 36 37 38 38 37 38 37 37 36 35 35 36 37 38 38 37 35 35 33 31 32 33 33 33 33 32 30 29 29 26 27 28 28 27 24 22 21 19 21 25 29 30
38 40 41 42 44 44 44 44 44 43 42 41 40 39 39 41 41 39 38 39 39 34 34 35 37 36 35 33 31 29 30 28 30 31 30 27 25 23 22 21 24 29 32
44 45 46 47 48 48 48 49 49 49 49 48 46 45 44 42 43 43 42 41 41 43 40 36 38 39 39 37 36 32 29 30 31 34 33 31 28 26 25 25 25 28 33
45 47 49 52 54 56 56 55 55 54 53 53 53 51 50 48 46 45 44 44 44 43 45 45 41 41 42 41 40 39 34 32 32 34 37 35 31 29 28 29 27 28 32
49 51 51 52 54 58 60 61 61 61 58 58 57 56 55 54 52 50 48 46 46 47 46 46 47 45 42 44 43 43 41 37 33 35 38 38 36 33 31 30 31 30 31
53 55 57 60 61 62 60 62 64 64 64 63 62 61 59 58 58 56 54 52 49 47 47 46 45 47 47 44 46 47 47 44 38 36 39 40 40 38 36 32 31 32 32
60 62 64 65 66 67 69 70 67 65 67 68 67 65 64 63 62 61 60 57 55 52 50 48 46 43 44 48 49 50 50 48 45 41 40 42 43 42 40 37 34 33 33
65 64 65 66 65 65 68 73 75 75 71 68 69 71 69 68 67 66 65 63 61 59 55 53 51 48 45 46 51 52 52 51 49 46 42 42 43 44 44 42 39 33 33
65 65 65 65 65 66 68 71 74 76 78 79 74 72 73 72 72 70 69 68 66 64 62 59 53 53 47 47 57 53 56 54 53 49 48 45 45 45 45 47 45 39 35
76 76 77 78 80 80 78 76 77 81 82 80 83 80 77 76 75 75 73 72 71 69 68 65 64 59 48 51 57 57 55 56 54 53 51 50 47 47 47 48 48 42 38
84 84 88 86 86 87 88 87 85 83 85 87 86 86 84 82 80 78 77 77 75 74 72 71 69 65 64 64 46 50 53 54 56 56 53 52 51 48 49 50 50 46 44
91 92 94 96 97 95 95 95 93 92 91 90 91 91 90 89 87 83 81 79 79 77 77 76 75 71 69 51 57 58 56 54 57 55 54 53 55 52 50 51 51 50 48
97 98 101 102 102 102 101 99 96 96 97 96 96 96 95 94 93 90 85 83 82 82 81 80 79 78 69 62 58 58 61 54 61 53 57 58 56 56 54 52 53 52 50
101 104 102 101 100 99 99 98 97 96 95 97 98 98 101 98 97 95 90 87 86 85 85 84 83 82 76 72 60 66 51 54 57 56 65 60 60 59 57 54 53 53 51
101 96 94 88 79 72 70 71 74 80 86 92 95 98 101 103 101 99 95 89 88 87 87 88 87 86 83 79 73 70 63 63 69 57 58 58 54 58 61 59 56 53 52
87 79 64 58 54 52 50 50 51 52 57 70 83 91 97 102 104 102 99 94 89 90 90 90 91 90 88 82 77 76 71 56 45 63 54 57 64 65 65 60 58 55 53
64 54 52 51 49 49 48 47 47 46 46 48 56 70 85 97 103 103 102 98 93 91 93 92 93 92 93 86 80 78 74 72 48 57 61 54 60 65 68 63 59 56 54
50 47 45 44 45 45 45 45 44 44 43 44 47 50 59 78 94 102 102 101 96 95 95 95 94 95 95 92 87 80 76 78 66 46 59 63 59 62 66 63 61 61 56
Wind_Direction
275 272 272 270 273 265 274 273 251 251 249 251 250 249 248 249 246 243 246 244 247 247 249 248 239 240 244 247 232 236 233 236 229 214 216 222 216 211 199 183 172 168 164
264 267 267 268 271 271 274 275 279 265 250 254 254 255 251 247 246 245 245 249 250 246 250 247 247 240 238 240 235 235 240 246 238 226 214 220 218 212 202 189 176 175 174
270 264 267 270 269 267 270 271 271 277 277 260 258 255 256 253 249 247 247 247 250 248 249 248 245 243 238 240 239 236 238 247 239 225 221 216 221 217 207 194 183 180 179
257 257 261 265 266 266 269 275 277 263 270 283 274 256 255 255 252 249 246 245 246 245 246 246 244 240 243 245 247 241 237 242 236 226 220 214 216 216 209 201 192 184 182
270 271 265 261 259 258 258 263 267 269 273 270 275 275 255 257 257 253 251 246 243 243 243 243 244 240 242 244 250 245 235 237 232 225 218 214 213 216 209 203 202 193 190
268 270 268 266 265 265 264 262 259 258 260 263 265 268 273 250 253 256 254 253 243 241 243 243 243 239 241 245 249 249 233 231 227 223 219 216 215 215 212 206 205 201 198
270 268 272 271 271 270 268 263 263 260 256 256 258 260 262 269 256 248 255 257 258 242 243 246 247 244 239 242 246 250 237 229 225 222 219 217 221 218 217 213 212 207 206
279 277 273 271 270 270 269 268 266 264 259 255 255 255 254 259 264 259 256 258 257 260 249 247 250 247 244 243 243 244 242 232 223 223 223 219 219 222 221 220 215 212 211
277 276 276 276 273 270 269 267 266 264 264 261 257 256 256 255 254 252 250 256 262 252 255 250 249 251 248 245 244 242 240 232 226 221 227 225 224 223 225 224 220 216 215
276 275 275 273 272 271 270 270 268 266 264 261 260 258 257 256 255 252 248 248 250 259 255 247 251 249 249 248 246 245 241 235 228 223 227 228 230 226 226 227 227 222 220
277 278 278 277 276 275 272 269 267 265 265 263 261 259 258 255 256 253 249 246 244 248 251 252 251 251 249 247 247 245 244 239 231 224 227 229 230 232 227 229 231 227 225
276 275 274 273 273 273 273 271 269 268 264 261 261 260 257 256 254 254 253 249 246 243 243 246 248 249 250 249 247 245 241 241 236 229 227 230 231 233 232 230 230 232 229
282 281 278 274 271 269 269 268 268 267 265 263 261 257 257 257 255 253 250 251 249 244 243 244 245 247 248 250 248 247 243 236 238 234 230 229 231 234 236 232 231 233 233
280 279 280 280 279 277 272 268 267 267 266 263 261 259 256 253 253 253 251 249 248 248 245 243 243 246 245 246 246 245 243 238 234 234 231 230 232 232 236 234 233 234 236
284 282 279 275 272 271 272 273 270 265 264 265 263 260 257 254 251 250 250 249 247 245 246 244 241 242 244 245 244 245 245 242 235 233 233 230 231 232 234 236 234 234 235
283 280 278 274 270 266 265 265 267 268 266 260 259 261 258 256 252 249 247 247 247 245 243 243 245 245 242 243 245 243 244 243 240 236 233 234 231 232 232 237 238 234 237
288 287 284 280 275 271 265 259 259 259 262 264 259 255 256 255 254 250 247 245 244 245 243 242 239 245 239 260 244 242 238 237 238 234 233 235 234 232 232 233 238 234 235
288 288 285 281 279 276 271 265 258 256 254 255 259 256 252 251 251 251 248 245 242 242 243 242 242 242 243 250 250 237 236 231 234 233 232 231 235 233 233 234 235 235 234
289 287 285 282 278 275 273 270 265 259 256 254 252 254 253 251 249 247 247 246 242 240 240 242 241 239 242 247 253 239 235 238 232 232 231 231 232 232 233 235 235 234 235
289 287 286 284 281 277 274 270 266 263 258 253 252 251 250 250 249 247 245 244 243 240 238 238 241 240 241 245 246 259 259 244 251 233 228 229 231 233 232 233 235 233 233
293 291 288 285 282 279 276 272 268 263 260 256 250 247 248 248 247 248 244 242 241 240 239 237 238 241 238 234 246 241 252 246 243 240 233 229 230 232 232 233 234 236 233
295 292 290 288 285 281 278 274 269 265 260 257 252 247 245 245 244 245 245 241 240 238 238 237 236 238 237 236 230 247 248 240 233 236 243 233 231 226 230 231 232 234 234
296 296 292 289 287 284 280 277 272 266 259 253 251 247 244 242 242 242 242 240 239 237 236 236 236 237 237 235 233 237 238 252 246 244 234 232 241 239 226 230 231 231 233
298 295 294 292 291 288 285 281 278 273 265 258 251 246 243 241 240 240 240 238 234 235 235 234 234 235 236 235 233 233 230 241 249 248 250 242 237 239 227 225 229 229 231
298 297 296 295 293 291 288 284 279 276 273 267 259 251 244 240 239 239 238 237 233 231 233 233 233 234 235 235 234 232 230 231 245 247 253 255 228 230 222 221 227 229 229
299 299 300 299 297 294 292 288 283 278 274 268 264 260 253 245 239 238 237 236 233 230 228 231 232 232 233 234 232 229 229 232 232 240 248 253 252 223 228 223 225 228 228